Location: Capelle
(50.3413°N, 1.9974°E)
Time: 07:12:17
(UTC+00:00)

BREEZE-M DEB (TANK) - Pass Details

Date: 12 January 2026
Orbit: 609 x 17103 km, 49.5° (Epoch: 18 February)

Event Time Altitude Azimuth Distance (km) Brightness Sun altitude
Rises 18:43:55 0° 271° (W) 3,892 8.6 -23.2°
Reaches altitude 10° 18:46:59 10° 271° (W) 2,367 7.1 -23.7°
Enters shadow 18:51:16 81° 202° (SSW) 625 3.0 -24.4°
